Location: Bottenau
(48.5138°N, 8.0462°E)
Time: 05:27:17
(UTC+00:00)

Cosmos 2263 Rocket - Pass Details

Date: 18 April 2021
Orbit: 824 x 848 km, 71.0° (Epoch: 09 May)

Event Time Altitude Azimuth Distance (km) Brightness Sun altitude
Exits shadow 21:42:53 22° 71° (ENE) 1,746 3.7 -26.0°
Drops below altitude 10° 21:45:27 10° 48° (NE) 2,434 4.7 -26.2°
Sets 21:48:13 0° 37° (NE) 3,374 5.7 -26.5°
